2024/01/24 00:00:00, 0.0,-1.2
2024/01/24 00:10:00, 0.1,-1.2
2024/01/24 00:20:00, 0.1,-0.8
2024/01/24 00:30:00, 0.1,-1.2
2024/01/24 00:40:00, 0.1,-1.5
2024/01/24 00:50:00, 0.1,-1.9
2024/01/24 01:00:00, 0.0,-2.0
2024/01/24 01:10:00, 0.0,-2.1
2024/01/24 01:20:00, 0.0,-1.6
2024/01/24 01:30:00, 0.0,-2.0
2024/01/24 01:40:00, 0.0,-1.7
2024/01/24 01:50:00, 0.0,-1.4
2024/01/24 02:00:00, 0.0,-1.7
2024/01/24 02:10:00, 0.0,-1.9
2024/01/24 02:20:00, 0.1,-1.6
2024/01/24 02:30:00, 0.0,-1.4
2024/01/24 02:40:00, 0.0,-1.8
2024/01/24 02:50:00, 0.0,-1.9
2024/01/24 03:00:00, 0.0,-1.3
2024/01/24 03:10:00, 0.0,-1.9
2024/01/24 03:20:00, 0.0,-1.8
2024/01/24 03:30:00, 0.0,-1.9
2024/01/24 03:40:00, 0.0,-2.2
2024/01/24 03:50:00, 0.0,-2.5
2024/01/24 04:00:00, 0.1,-2.0
2024/01/24 04:10:00, 0.1,-1.8
2024/01/24 04:20:00, 0.2,-2.1
2024/01/24 04:30:00, 0.3,-1.9
2024/01/24 04:40:00, 0.3,-2.7
2024/01/24 04:50:00, 0.6,-2.6
2024/01/24 05:00:00, 0.8,-2.3
2024/01/24 05:10:00, 0.9,-2.4
2024/01/24 05:20:00, 1.0,-2.7
2024/01/24 05:30:00, 1.1,-2.1
2024/01/24 05:40:00, 1.1,-1.7
2024/01/24 05:50:00, 1.1,-2.5
2024/01/24 06:00:00, 1.1,-2.1
2024/01/24 06:10:00, 1.1,-2.3
2024/01/24 06:20:00, 1.2,-2.5
2024/01/24 06:30:00, 1.2,-2.3
2024/01/24 06:40:00, 1.2,-2.3
2024/01/24 06:50:00, 1.3,-2.1
2024/01/24 07:00:00, 1.6,-2.4
2024/01/24 07:10:00, 1.7,-2.4
2024/01/24 07:20:00, 1.9,-2.7
2024/01/24 07:30:00, 1.9,-2.6
2024/01/24 07:40:00, 2.1,-2.6
2024/01/24 07:50:00, 2.2,-2.5
2024/01/24 08:00:00, 2.4,-2.3
2024/01/24 08:10:00, 2.4,-2.3
2024/01/24 08:20:00, 2.5,-2.0
2024/01/24 08:30:00, 2.9,-2.6
2024/01/24 08:40:00, 3.3,-2.7
2024/01/24 08:50:00, 4.0,-3.0
2024/01/24 09:00:00, 4.2,-2.4
2024/01/24 09:10:00, 4.1,-2.4
2024/01/24 09:20:00, 4.2,-2.2
2024/01/24 09:30:00, 4.8,-2.3
2024/01/24 09:40:00, 6.1,-1.8
2024/01/24 09:50:00, 6.4,-0.7
2024/01/24 10:00:00, 6.5,-1.4
2024/01/24 10:10:00, 6.7,-1.4
2024/01/24 10:20:00, 7.0,-1.6
2024/01/24 10:30:00, 7.5,-1.9
2024/01/24 10:40:00, 7.7,-0.7
2024/01/24 10:50:00, 7.7, 2.2
2024/01/24 11:00:00, 7.7, 0.8
2024/01/24 11:10:00, 8.2,-1.4
2024/01/24 11:20:00, 8.2,-0.7
2024/01/24 11:30:00, 8.2,-0.5
2024/01/24 11:40:00, 8.4,-1.4
2024/01/24 11:50:00, 9.1,-1.7
2024/01/24 12:00:00, 9.8,-1.7
2024/01/24 12:10:00,10.1,-1.2
2024/01/24 12:20:00,10.2,-1.7
2024/01/24 12:30:00,10.5,-1.7
2024/01/24 12:40:00,11.3,-1.7
2024/01/24 12:50:00,12.1,-1.7
2024/01/24 13:00:00,13.1,-2.1
2024/01/24 13:10:00,13.9,-2.1
2024/01/24 13:20:00,14.6,-1.6
2024/01/24 13:30:00,15.2,-1.2
2024/01/24 13:40:00,16.3,-1.6
2024/01/24 13:50:00,17.2,-1.7
2024/01/24 14:00:00,17.5,-2.1
2024/01/24 14:10:00,18.0,-2.1
2024/01/24 14:20:00,18.5,-1.7
2024/01/24 14:30:00,18.8,-2.1
2024/01/24 14:40:00,18.8,-1.6
2024/01/24 14:50:00,18.9,-2.0
2024/01/24 15:00:00,18.9,-1.8
2024/01/24 15:10:00,19.1,-2.2
2024/01/24 15:20:00,19.8,-1.7
2024/01/24 15:30:00,20.0,-1.8
2024/01/24 15:40:00,20.3,-1.6
2024/01/24 15:50:00,20.3,-1.9
2024/01/24 16:00:00,20.6,-2.0
2024/01/24 16:10:00,20.8,-2.2
2024/01/24 16:20:00,21.5,-1.8
2024/01/24 16:30:00,22.6,-1.8
2024/01/24 16:40:00,23.7,-2.0
2024/01/24 16:50:00,24.7,-1.8
2024/01/24 17:00:00,25.1,-2.1
2024/01/24 17:10:00,25.8,-2.2
2024/01/24 17:20:00,26.5,-2.1
2024/01/24 17:30:00,27.0,-1.7
2024/01/24 17:40:00,26.9,-1.4
2024/01/24 17:50:00,27.0,-1.7
2024/01/24 18:00:00,27.2,-1.4
2024/01/24 18:10:00,27.4,-1.3
2024/01/24 18:20:00,27.4,-1.4
2024/01/24 18:30:00,27.3,-1.6
2024/01/24 18:40:00,27.1,-1.5
2024/01/24 18:50:00,26.8,-1.3
2024/01/24 19:00:00,26.6,-1.2
2024/01/24 19:10:00,26.5,-1.3
2024/01/24 19:20:00,26.5,-1.0
2024/01/24 19:30:00,26.4,-1.2
2024/01/24 19:40:00,26.2,-1.4
2024/01/24 19:50:00,26.0,-1.3
2024/01/24 20:00:00,26.0,-1.2
2024/01/24 20:10:00,26.0,-0.9
2024/01/24 20:20:00,25.9,-1.2
2024/01/24 20:30:00,25.7,-1.3
2024/01/24 20:40:00,25.6,-1.2
2024/01/24 20:50:00,25.6,-1.2
2024/01/24 21:00:00,25.5,-1.3
2024/01/24 21:10:00,25.5,-1.2
2024/01/24 21:20:00,25.5,-1.1
2024/01/24 21:30:00,25.4,-0.8
2024/01/24 21:40:00,25.6,-1.1
2024/01/24 21:50:00,25.6,-1.1
2024/01/24 22:00:00,25.5,-0.8
2024/01/24 22:10:00,25.4,-0.5
2024/01/24 22:20:00,25.3,-0.5
2024/01/24 22:30:00,25.1,-0.8
2024/01/24 22:40:00,25.1,-0.6
2024/01/24 22:50:00,25.0,-1.2
2024/01/24 23:00:00,25.2,-0.7
2024/01/24 23:10:00,25.1,-0.7
2024/01/24 23:20:00,25.0,-1.2
2024/01/24 23:30:00,24.8,-1.4
2024/01/24 23:40:00,24.7,-0.4
2024/01/24 23:50:00,24.7,-0.1
